Weather History for KSGS - December, 2012

Change the Weather History Date:

Wednesday, December 5, 2012

  Actual Average (KMSP) Record (KMSP)
Temperature  
Mean Temperature 30 °F 23 °F  
Max Temperature 40 °F 30 °F 63 °F (2001)
Min Temperature 19 °F 16 °F -14 °F (1873)
Degree Days  
Heating Degree Days 36 42  
Month to date heating degree days 204  
Since 1 July heating degree days 1823  
Cooling Degree Days 0 0  
Month to date cooling degree days 0  
Year to date cooling degree days 753  
Moisture  
Dew Point 16 °F    
Average Humidity 56    
Maximum Humidity 73    
Minimum Humidity 45    
Precipitation  
Precipitation 0.00 in 0.04 in 0.81 in (1909)
Month to date precipitation 0.22  
Year to date precipitation 29.67  
Snow  
Snow 0.00 in 0.40 in 7.00 in (1909)
Month to date snowfall 2.0  
Since 1 July snowfall 11.9  
Snow Depth -    
Sea Level Pressure  
Sea Level Pressure 30.19 in    
Wind  
Wind Speed 6 mph (SE)    
Max Wind Speed 16 mph    
Max Gust Speed 25 mph    
Visibility 10 miles    
Events      
T = Trace of Precipitation, MM = Missing Value Source: NWS Daily Summary

Daily Weather History Graph

Daily Weather History Graph

Search for Another Location

Airport or City:

Trip Planner

Search our weather history database for the weather conditions in past years. The results will help you decide how hot, cold, wet, or windy it might be!

Date:

Astronomy

Dec. 05, 2012 Rise Set
Actual Time 7:34 AM CST 4:31 PM CST
Civil Twilight 7:01 AM CST 5:04 PM CST
Nautical Twilight 6:24 AM CST 5:41 PM CST
Astronomical Twilight 5:49 AM CST 6:16 PM CST
Moon 11:34 PM CST (12/5) 11:46 AM CST (12/5)
Length of Visible Light 10h 03m
Length of Day
8h 56m
Waning Gibbous, 59% of the Moon is Illuminated
Dec 5
Waning Gibbous
Dec 6
Last Quarter
Dec 13
New
Dec 19
First Quarter
Dec 28
Full

Hourly Weather History & Observations

Time (CST) Temp. Windchill Dew Point Humidity Pressure Visibility Wind Dir Wind Speed Gust Speed Precip Events Conditions
12:12 AM 23.9 °F 18.0 °F 11.3 °F 59% 30.41 in 10.0 mi NNE 4.6 mph - N/A   Clear
12:32 AM 23.4 °F - 12.0 °F 62% 30.40 in 10.0 mi Calm Calm - N/A   Clear
12:52 AM 23.4 °F 18.9 °F 12.0 °F 62% 30.40 in 10.0 mi NNE 3.5 mph - N/A   Clear
1:12 AM 23.2 °F - 12.0 °F 62% 30.40 in 10.0 mi Calm Calm - N/A   Clear
1:52 AM 22.6 °F - 11.8 °F 63% 30.41 in 10.0 mi Calm Calm - N/A   Clear
2:12 AM 22.1 °F 17.4 °F 11.8 °F 65% 30.40 in 10.0 mi East 3.5 mph - N/A   Clear
2:32 AM 22.1 °F 15.9 °F 11.8 °F 65% 30.40 in 10.0 mi East 4.6 mph - N/A   Clear
2:52 AM 21.7 °F 17.0 °F 12.0 °F 66% 30.41 in 10.0 mi ENE 3.5 mph - N/A   Clear
3:12 AM 22.1 °F 15.9 °F 12.2 °F 66% 30.41 in 10.0 mi East 4.6 mph - N/A   Clear
3:32 AM 21.7 °F 17.0 °F 11.8 °F 66% 30.40 in 10.0 mi East 3.5 mph - N/A   Clear
3:52 AM 21.4 °F - 11.5 °F 66% 30.40 in 10.0 mi Calm Calm - N/A   Clear
4:12 AM 21.2 °F 16.4 °F 11.7 °F 67% 30.41 in 10.0 mi East 3.5 mph - N/A   Clear
4:32 AM 21.2 °F 14.9 °F 11.7 °F 67% 30.40 in 10.0 mi East 4.6 mph - N/A   Clear
4:52 AM 20.8 °F - 11.8 °F 68% 30.39 in 10.0 mi Calm Calm - N/A   Clear
5:12 AM 20.5 °F 15.6 °F 11.8 °F 69% 30.39 in 10.0 mi SSE 3.5 mph - N/A   Clear
5:32 AM 19.9 °F 14.9 °F 12.0 °F 71% 30.39 in 10.0 mi SSE 3.5 mph - N/A   Clear
5:52 AM 19.9 °F 14.9 °F 12.2 °F 72% 30.40 in 10.0 mi SSE 3.5 mph - N/A   Clear
6:12 AM 19.8 °F 14.7 °F 12.4 °F 73% 30.39 in 10.0 mi ESE 3.5 mph - N/A   Clear
6:32 AM 20.3 °F 13.8 °F 12.7 °F 73% 30.39 in 10.0 mi SSE 4.6 mph - N/A   Clear
6:52 AM 20.3 °F 13.8 °F 12.7 °F 73% 30.37 in 10.0 mi SE 4.6 mph - N/A   Clear
8:32 AM 21.2 °F 13.6 °F 13.8 °F 73% 30.36 in 10.0 mi SE 5.8 mph - N/A   Clear
8:52 AM 22.6 °F 14.3 °F 14.2 °F 70% 30.35 in 10.0 mi SSE 6.9 mph - N/A   Clear
9:12 AM 23.7 °F 13.3 °F 14.0 °F 66% 30.35 in 10.0 mi SE 10.4 mph - N/A   Clear
9:32 AM 24.6 °F 15.1 °F 14.0 °F 64% 30.35 in 10.0 mi SE 9.2 mph - N/A   Clear
9:52 AM 25.2 °F 15.7 °F 13.8 °F 62% 30.35 in 10.0 mi SSE 9.2 mph - N/A   Clear
10:12 AM 26.8 °F 17.7 °F 14.2 °F 59% 30.34 in 10.0 mi SSE 9.2 mph - N/A   Clear
10:32 AM 26.6 °F 18.2 °F 13.8 °F 59% 30.32 in 10.0 mi SE 8.1 mph 16.1 mph N/A   Clear
10:52 AM 27.9 °F 19.8 °F 14.7 °F 58% 30.30 in 10.0 mi SE 8.1 mph - N/A   Clear
11:12 AM 28.9 °F 19.8 °F 14.0 °F 54% 30.28 in 10.0 mi SE 10.4 mph - N/A   Clear
11:32 AM 30.6 °F 22.4 °F 14.2 °F 51% 30.26 in 10.0 mi SE 9.2 mph - N/A   Clear
11:52 AM 31.6 °F 23.1 °F 13.3 °F 47% 30.25 in 10.0 mi SE 10.4 mph 16.1 mph N/A   Clear
12:12 PM 32.0 °F 23.6 °F 14.0 °F 48% 30.24 in 10.0 mi SSE 10.4 mph - N/A   Clear
12:32 PM 32.0 °F 22.5 °F 14.2 °F 48% 30.22 in 10.0 mi SE 12.7 mph 17.3 mph N/A   Clear
12:52 PM 32.0 °F 23.6 °F 14.7 °F 49% 30.22 in 10.0 mi SE 10.4 mph 16.1 mph N/A   Clear
1:12 PM 32.4 °F 23.5 °F 15.3 °F 49% 30.20 in 10.0 mi SE 11.5 mph - N/A   Clear
1:32 PM 32.4 °F 24.6 °F 15.6 °F 50% 30.18 in 10.0 mi SE 9.2 mph - N/A   Clear
1:52 PM 32.9 °F 25.3 °F 15.8 °F 49% 30.16 in 10.0 mi SE 9.2 mph - N/A   Clear
2:12 PM 33.3 °F 27.1 °F 15.6 °F 48% 30.15 in 10.0 mi SE 6.9 mph 16.1 mph N/A   Scattered Clouds
2:32 PM 33.8 °F 27.7 °F 16.2 °F 49% 30.13 in 10.0 mi ESE 6.9 mph - N/A   Clear
2:52 PM 34.2 °F 26.2 °F 16.0 °F 47% 30.12 in 10.0 mi SE 10.4 mph - N/A   Clear
3:12 PM 34.3 °F 25.9 °F 16.3 °F 48% 30.11 in 10.0 mi SE 11.5 mph 17.3 mph N/A   Scattered Clouds
3:32 PM 34.5 °F 27.3 °F 16.3 °F 48% 30.11 in 10.0 mi SE 9.2 mph - N/A   Scattered Clouds
3:52 PM 34.7 °F 28.8 °F 16.7 °F 48% 30.10 in 10.0 mi SE 6.9 mph - N/A   Scattered Clouds
4:12 PM 34.7 °F 27.5 °F 17.1 °F 49% 30.08 in 10.0 mi SE 9.2 mph - N/A   Clear
4:32 PM 34.9 °F 27.1 °F 16.9 °F 48% 30.07 in 10.0 mi SE 10.4 mph 18.4 mph N/A   Clear
4:52 PM 35.2 °F 26.6 °F 16.5 °F 47% 30.05 in 10.0 mi SE 12.7 mph 18.4 mph N/A   Scattered Clouds
5:12 PM 35.8 °F 27.8 °F 16.3 °F 45% 30.05 in 10.0 mi SSE 11.5 mph 18.4 mph N/A   Scattered Clouds
5:32 PM 35.8 °F 26.5 °F 16.5 °F 46% 30.03 in 10.0 mi SE 15.0 mph 21.9 mph N/A   Clear
5:52 PM 35.8 °F 28.3 °F 16.7 °F 46% 30.02 in 10.0 mi SSE 10.4 mph 21.9 mph N/A   Clear
6:12 PM 35.8 °F 27.8 °F 16.9 °F 46% 30.01 in 10.0 mi SSE 11.5 mph 21.9 mph N/A   Scattered Clouds
6:32 PM 35.8 °F 27.8 °F 17.2 °F 47% 30.00 in 10.0 mi SSE 11.5 mph 20.7 mph N/A   Scattered Clouds
6:52 PM 36.0 °F 26.3 °F 17.4 °F 47% 29.98 in 10.0 mi SSE 16.1 mph 23.0 mph N/A   Clear
7:12 PM 36.3 °F 26.8 °F 18.0 °F 47% 29.97 in 10.0 mi SSE 16.1 mph 23.0 mph N/A   Clear
7:32 PM 36.5 °F 27.4 °F 18.5 °F 48% 29.97 in 10.0 mi SSE 15.0 mph 25.3 mph N/A   Mostly Cloudy
7:52 PM 36.7 °F 28.9 °F 19.0 °F 49% 29.97 in 10.0 mi SSE 11.5 mph 24.2 mph N/A   Mostly Cloudy
8:12 PM 37.0 °F 29.3 °F 19.4 °F 49% 29.97 in 10.0 mi SSE 11.5 mph - N/A   Overcast
8:32 PM 37.4 °F 32.1 °F 19.9 °F 49% 29.97 in 10.0 mi SSE 6.9 mph - N/A   Overcast
8:52 PM 37.8 °F 31.3 °F 20.3 °F 49% 29.97 in 10.0 mi SSE 9.2 mph - N/A   Mostly Cloudy
9:12 PM 38.3 °F 32.5 °F 20.8 °F 50% 29.96 in 10.0 mi SSE 8.1 mph - N/A   Scattered Clouds
9:32 PM 38.7 °F 32.9 °F 21.2 °F 50% 29.95 in 10.0 mi SSE 8.1 mph - N/A   Scattered Clouds
9:52 PM 39.2 °F 33.0 °F 21.7 °F 50% 29.95 in 10.0 mi SSE 9.2 mph - N/A   Clear
10:12 PM 39.6 °F 33.0 °F 22.5 °F 50% 29.94 in 10.0 mi SSE 10.4 mph 19.6 mph N/A   Clear
10:32 PM 40.1 °F 32.4 °F 22.6 °F 50% 29.92 in 10.0 mi SSE 13.8 mph 19.6 mph N/A   Clear
10:52 PM 40.1 °F 32.4 °F 23.0 °F 51% 29.91 in 10.0 mi South 13.8 mph 21.9 mph N/A   Scattered Clouds
11:12 PM 40.3 °F 31.9 °F 23.5 °F 51% 29.91 in 10.0 mi South 16.1 mph 19.6 mph N/A   Overcast
11:32 PM 40.3 °F 33.9 °F 23.9 °F 52% 29.90 in 10.0 mi SSE 10.4 mph 17.3 mph N/A   Overcast
11:52 PM 40.5 °F 34.1 °F 24.4 °F 53% 29.88 in 10.0 mi SSE 10.4 mph 18.4 mph N/A   Overcast